FW7859 Weather Reports


Display with metric or nautical units.
time (UTC)temp
F
wind
direction
speed
MPH
gust
MPH
rain 1hr
in
rain 24hr
in
rain mn
in
humidity
%
barometer
mb
20260507032504 62 354 4.0 8.0 0.00 0.00 0.00 86 1011.4
20260507032215 62 357 4.0 8.0 0.00 0.00 0.00 87 1011.2
20260507031713 62 342 4.0 8.0 0.00 0.00 0.00 87 1011.4
20260507031003 62 322 3.0 8.0 0.00 0.00 0.00 87 1011.5
20260507030503 62 307 3.0 4.0 0.00 0.00 0.00 87 1011.5
20260507030003 62 306 3.0 4.0 0.00 0.00 0.00 87 1011.6
20260507025503 62 314 3.0 6.0 0.00 0.00 0.00 87 1011.5
20260507025213 62 323 3.0 7.0 0.00 0.00 0.00 87 1011.6
20260507024503 62 330 4.0 7.0 0.00 0.00 0.00 87 1011.6
20260507024003 62 342 3.0 7.0 0.00 0.00 0.00 87 1011.6
20260507023503 62 353 4.0 7.0 0.00 0.00 0.00 87 1011.4
20260507023004 62 349 4.0 7.0 0.00 0.00 0.00 87 1011.6
20260507022503 62 340 4.0 8.0 0.00 0.00 0.00 87 1011.6
20260507022003 62 320 3.0 8.0 0.00 0.00 0.00 86 1011.8
20260507021503 62 313 3.0 6.0 0.00 0.00 0.00 86 1011.7
20260507021003 62 328 3.0 7.0 0.00 0.00 0.00 86 1011.9
20260507020503 62 325 3.0 7.0 0.00 0.00 0.00 86 1012.0
20260507020003 62 340 3.0 6.0 0.00 0.00 0.00 86 1011.9
20260507015503 62 7 3.0 6.0 0.00 0.00 0.00 86 1012.0
20260507015214 62 15 2.0 4.0 0.00 0.00 0.00 86 1011.7
20260507014717 62 27 1.0 4.0 0.00 0.00 0.00 86 1011.9
20260507014215 62 13 1.0 4.0 0.00 0.00 0.00 86 1011.9
20260507013503 62 345 2.0 4.0 0.00 0.00 0.00 85 1012.2
20260507013003 63 352 2.0 6.0 0.00 0.00 0.00 85 1012.1
20260507012503 63 342 3.0 6.0 0.00 0.00 0.00 85 1012.3
20260507012003 63 339 3.0 6.0 0.00 0.00 0.00 85 1012.2
20260507011503 63 339 3.0 6.0 0.00 0.00 0.00 85 1012.3
20260507011003 63 329 3.0 6.0 0.00 0.00 0.00 85 1012.3
20260507010503 63 330 2.0 4.0 0.00 0.00 0.00 85 1012.3
20260507010004 63 13 1.0 4.0 0.00 0.00 0.00 84 1012.3
20260507005503 63 341 1.0 4.0 0.00 0.00 0.00 84 1012.4
20260507005003 63 307 2.0 4.0 0.00 0.00 0.00 84 1012.5
20260507004503 63 309 3.0 6.0 0.00 0.00 0.00 84 1012.3
20260507004003 63 309 3.0 6.0 0.00 0.00 0.00 84 1012.5
20260507003503 63 290 2.0 4.0 0.00 0.00 0.00 84 1012.3
20260507003216 63 293 2.0 6.0 0.00 0.00 0.00 84 1012.5
20260507002503 63 300 3.0 6.0 0.00 0.00 0.00 84 1012.2
20260507002003 63 305 3.0 6.0 0.00 0.00 0.00 84 1012.2
20260507001503 63 303 2.0 6.0 0.00 0.00 0.00 84 1012.1
20260507001003 63 260 1.0 3.0 0.00 0.00 0.00 84 1012.3
20260507000503 62 248 1.0 6.0 0.00 0.00 0.00 84 1012.2
20260507000003 62 249 2.0 6.0 0.00 0.00 0.00 84 1012.1
20260506235503 62 250 2.0 6.0 0.00 0.00 0.00 84 1012.2
20260506235003 62 252 1.0 4.0 0.00 0.00 0.00 84 1012.5
20260506234504 62 252 1.0 3.0 0.00 0.00 0.00 84 1012.4
20260506234003 62 256 2.0 4.0 0.00 0.00 0.00 84 1012.4
20260506233503 62 264 2.0 4.0 0.00 0.00 0.00 83 1012.5
20260506233003 62 259 2.0 4.0 0.00 0.00 0.00 83 1012.5
20260506232503 61 237 2.0 3.0 0.00 0.00 0.00 83 1012.6
20260506232213 61 239 2.0 4.0 0.00 0.00 0.00 83 1012.6
20260506231503 62 254 3.0 6.0 0.00 0.00 0.00 82 1012.7
20260506231004 62 254 3.0 6.0 0.00 0.00 0.00 82 1012.6
20260506230503 62 254 2.0 6.0 0.00 0.00 0.00 82 1012.9
20260506230003 62 249 1.0 3.0 0.00 0.00 0.00 82 1012.8
20260506225504 62 249 1.0 3.0 0.00 0.00 0.00 82 1012.6
20260506225003 62 252 3.0 6.0 0.00 0.00 0.00 82 1012.5
20260506224503 62 251 2.0 6.0 0.00 0.00 0.00 81 1012.9
20260506224003 63 247 1.0 3.0 0.00 0.00 0.00 81 1012.9
20260506223503 64 245 1.0 2.0 0.00 0.00 0.00 80 1012.7
20260506223003 64 249 1.0 2.0 0.00 0.00 0.00 80 1013.0
20260506222716 64 251 1.0 2.0 0.00 0.00 0.00 80 1012.9
20260506222003 64 276 2.0 3.0 0.00 0.00 0.00 80 1012.9
20260506221504 64 289 1.0 3.0 0.00 0.00 0.00 80 1012.6
20260506221003 64 275 1.0 2.0 0.00 0.00 0.00 80 1012.8
20260506220503 64 121 0.0 2.0 0.00 0.00 0.00 80 1012.7
20260506220006 64 93 1.0 3.0 0.00 0.00 0.00 80 1012.5
20260506215503 64 46 1.0 3.0 0.00 0.00 0.00 80 1012.5
20260506215003 64 360 1.0 3.0 0.00 0.00 0.00 80 1012.6
20260506214503 64 5 2.0 4.0 0.00 0.00 0.00 80 1013.0
20260506214003 64 29 2.0 6.0 0.00 0.00 0.00 80 1013.1
20260506213503 64 38 2.0 6.0 0.00 0.00 0.00 80 1013.0
20260506213213 64 34 2.0 6.0 0.00 0.00 0.00 79 1013.0
20260506212503 64 66 2.0 6.0 0.00 0.00 0.00 79 1013.0
20260506212214 64 94 1.0 4.0 0.00 0.00 0.00 79 1013.3
20260506211503 65 177 1.0 3.0 0.00 0.00 0.00 79 1013.3
20260506211003 65 164 1.0 3.0 0.00 0.00 0.00 79 1013.3
20260506210519 65 155 1.0 3.0 0.00 0.00 0.00 79 1013.3
20260506210004 65 144 2.0 3.0 0.00 0.00 0.00 78 1013.1
20260506205503 65 139 2.0 3.0 0.00 0.00 0.00 78 1013.1
20260506205217 65 139 1.0 3.0 0.00 0.00 0.00 78 1013.3
20260506204503 65 124 2.0 4.0 0.00 0.00 0.00 77 1012.9
20260506204003 65 134 2.0 4.0 0.00 0.00 0.00 77 1012.9
20260506203503 65 155 2.0 4.0 0.00 0.00 0.00 77 1013.2
20260506203214 65 155 2.0 4.0 0.00 0.00 0.00 77 1013.0
20260506202717 65 143 2.0 6.0 0.00 0.00 0.00 76 1012.7
20260506202003 65 125 3.0 6.0 0.00 0.00 0.00 76 1012.7
20260506201503 65 134 2.0 4.0 0.00 0.00 0.00 76 1012.8
20260506201003 65 129 1.0 4.0 0.00 0.00 0.00 75 1012.7
20260506200503 65 119 2.0 7.0 0.00 0.00 0.00 75 1012.7
20260506200003 65 127 3.0 7.0 0.00 0.00 0.00 75 1012.3
20260506195503 65 123 2.0 6.0 0.00 0.00 0.00 75 1012.6
20260506195213 65 101 2.0 6.0 0.00 0.00 0.00 75 1012.5
20260506194503 65 102 3.0 8.0 0.00 0.00 0.00 75 1012.5
20260506194003 65 105 4.0 8.0 0.00 0.00 0.00 75 1012.3
20260506193503 65 100 3.0 8.0 0.00 0.00 0.00 75 1012.2
20260506193003 65 106 3.0 8.0 0.00 0.00 0.00 75 1012.3
20260506192503 65 112 3.0 8.0 0.00 0.00 0.00 75 1012.2
20260506192003 66 104 3.0 7.0 0.00 0.00 0.00 74 1012.0
20260506191503 66 101 3.0 8.0 0.00 0.00 0.00 74 1012.1
20260506191003 66 103 4.0 10.0 0.00 0.00 0.00 74 1012.0
20260506190503 65 110 6.0 10.0 0.00 0.00 0.00 74 1011.8
20260506190004 66 113 5.0 10.0 0.00 0.00 0.00 75 1012.0
20260506185716 66 112 5.0 10.0 0.00 0.00 0.00 74 1011.8
20260506185003 66 118 4.0 10.0 0.00 0.00 0.00 73 1011.9
20260506184503 66 113 4.0 10.0 0.00 0.00 0.00 73 1011.8
20260506184214 66 110 5.0 10.0 0.00 0.00 0.00 74 1011.9
20260506183503 66 77 3.0 10.0 0.00 0.00 0.00 74 1011.8
20260506183003 66 52 3.0 11.0 0.00 0.00 0.00 74 1011.5
20260506182504 66 42 4.0 11.0 0.00 0.00 0.00 75 1011.5
20260506182216 66 37 4.0 10.0 0.00 0.00 0.00 75 1011.6
20260506181503 66 46 4.0 11.0 0.00 0.00 0.00 74 1011.4
20260506181217 66 69 4.0 11.0 0.00 0.00 0.00 74 1011.5
20260506180503 67 104 5.0 13.0 0.00 0.00 0.00 73 1011.6
20260506180004 66 89 5.0 14.0 0.00 0.00 0.00 74 1011.4
20260506175503 66 87 5.0 14.0 0.00 0.00 0.00 74 1011.5
20260506175003 67 90 6.0 15.0 0.00 0.00 0.00 73 1011.5
20260506174503 66 90 6.0 15.0 0.00 0.00 0.00 73 1011.5
20260506174003 67 91 6.0 15.0 0.00 0.00 0.00 72 1011.3
20260506173503 67 88 6.0 15.0 0.00 0.00 0.00 71 1011.7
20260506173003 67 92 7.0 16.0 0.00 0.00 0.00 70 1011.5
20260506172504 67 93 6.0 16.0 0.00 0.00 0.00 69 1011.6
20260506172003 67 89 5.0 16.0 0.00 0.00 0.00 69 1011.5
20260506171503 67 108 7.0 18.0 0.00 0.00 0.00 69 1011.4
20260506171003 67 113 9.0 18.0 0.00 0.00 0.00 67 1011.6
20260506170503 67 111 7.0 18.0 0.00 0.00 0.00 69 1011.5
20260506170003 67 101 6.0 16.0 0.00 0.00 0.00 69 1011.6
20260506165503 67 104 7.0 18.0 0.00 0.00 0.00 71 1011.5
20260506165004 67 109 9.0 19.0 0.00 0.00 0.00 70 1011.5
20260506164503 67 100 8.0 19.0 0.00 0.00 0.00 71 1011.5
20260506164003 67 95 6.0 18.0 0.00 0.00 0.00 68 1011.6
20260506163503 67 102 7.0 21.0 0.00 0.00 0.00 68 1011.6
20260506163003 67 105 9.0 21.0 0.00 0.00 0.00 69 1011.4
20260506162503 67 91 8.0 19.0 0.00 0.00 0.00 70 1011.7
20260506162003 67 81 7.0 19.0 0.00 0.00 0.00 69 1011.7
20260506161503 68 93 6.0 16.0 0.00 0.00 0.00 70 1011.5
20260506161003 68 90 5.0 14.0 0.00 0.00 0.00 70 1011.5
20260506160716 68 96 6.0 15.0 0.00 0.00 0.00 69 1011.8
20260506160003 68 113 9.0 18.0 0.00 0.00 0.00 69 1011.7
20260506155503 68 98 8.0 18.0 0.00 0.00 0.00 69 1011.6
20260506155003 68 94 7.0 18.0 0.00 0.00 0.00 69 1011.5
20260506154503 68 91 7.0 18.0 0.00 0.00 0.00 69 1011.6
20260506154004 68 87 8.0 18.0 0.00 0.00 0.00 69 1011.5
20260506153503 68 92 9.0 19.0 0.00 0.00 0.00 69 1011.9
20260506153217 68 87 8.0 19.0 0.00 0.00 0.00 69 1011.5
20260506152503 68 103 9.0 23.0 0.00 0.00 0.00 67 1011.7
20260506152004 68 94 10.0 23.0 0.00 0.00 0.00 67 1011.2
20260506151504 69 60 8.0 22.0 0.00 0.00 0.00 64 1011.4
20260506151003 68 57 8.0 22.0 0.00 0.00 0.00 65 1011.7
20260506150717 69 68 7.0 19.0 0.00 0.00 0.00 66 1011.4
20260506150003 69 80 7.0 19.0 0.00 0.00 0.00 62 1011.7
20260506145503 69 99 8.0 17.0 0.00 0.00 0.00 60 1011.5
20260506145004 69 115 9.0 19.0 0.00 0.00 0.00 59 1011.5
20260506144503 69 105 8.0 19.0 0.00 0.00 0.00 61 1011.2
20260506144003 70 107 8.0 18.0 0.00 0.00 0.00 60 1011.4
20260506143503 69 102 7.0 17.0 0.00 0.00 0.00 61 1011.4
20260506143213 69 89 6.0 17.0 0.00 0.00 0.00 59 1011.5
20260506142503 69 91 11.0 23.0 0.00 0.00 0.00 62 1011.4
20260506142005 69 105 9.0 23.0 0.00 0.00 0.00 57 1011.1
20260506141503 70 81 7.0 21.0 0.00 0.00 0.00 59 1011.2
20260506141003 71 73 8.0 21.0 0.00 0.00 0.00 59 1011.1
20260506140503 70 65 8.0 24.0 0.00 0.00 0.00 58 1011.3
20260506140003 70 63 9.0 24.0 0.00 0.00 0.00 56 1011.4
20260506135713 70 65 10.0 23.0 0.00 0.00 0.00 55 1011.3
20260506135003 69 79 10.0 25.0 0.00 0.00 0.00 57 1011.3
20260506134714 70 91 10.0 25.0 0.00 0.00 0.00 57 1011.4
20260506134003 71 78 9.0 21.0 0.00 0.00 0.00 57 1011.5
20260506133503 70 74 9.0 21.0 0.00 0.00 0.00 59 1011.5
20260506133003 70 88 10.0 18.0 0.00 0.00 0.00 58 1011.6
20260506132503 70 94 10.0 21.0 0.00 0.00 0.00 59 1011.9
20260506132003 70 92 10.0 21.0 0.00 0.00 0.00 57 1011.8
20260506131503 70 89 9.0 22.0 0.00 0.00 0.00 54 1011.6
20260506131004 70 90 8.0 22.0 0.00 0.00 0.00 54 1011.9
20260506130503 70 65 7.0 19.0 0.00 0.00 0.00 63 1011.9
20260506130003 69 81 9.0 21.0 0.00 0.00 0.00 67 1011.7
20260506125503 70 102 10.0 21.0 0.00 0.00 0.00 67 1012.0
20260506125217 70 101 10.0 21.0 0.00 0.00 0.00 67 1011.9
20260506124503 69 97 9.0 22.0 0.00 0.00 0.00 66 1011.8
20260506124003 71 90 9.0 19.0 0.00 0.00 0.00 62 1012.0
20260506123716 69 82 8.0 24.0 0.00 0.00 0.00 65 1011.9
20260506123003 70 76 7.0 24.0 0.00 0.00 0.00 68 1012.3
20260506122717 69 64 7.0 19.0 0.00 0.00 0.00 67 1012.2
20260506122003 69 84 9.0 22.0 0.00 0.00 0.00 70 1012.3
20260506121503 69 98 9.0 22.0 0.00 0.00 0.00 71 1012.1
20260506121004 70 94 8.0 23.0 0.00 0.00 0.00 68 1012.2
20260506120503 70 105 7.0 23.0 0.00 0.00 0.00 69 1012.2
20260506120003 69 102 7.0 22.0 0.00 0.00 0.00 72 1012.0
20260506115715 69 89 8.0 21.0 0.00 0.00 0.00 72 1012.2
20260506115003 69 83 10.0 24.0 0.00 0.00 0.00 72 1012.5
20260506114503 69 85 10.0 24.0 0.00 0.00 0.00 74 1012.6
20260506114003 69 94 11.0 24.0 0.00 0.00 0.00 74 1012.5
20260506113503 69 84 8.0 23.0 0.00 0.00 0.00 74 1012.5
20260506113003 69 60 8.0 22.0 0.00 0.00 0.00 74 1012.6
20260506112503 69 59 9.0 23.0 0.00 0.00 0.00 74 1012.3
20260506112003 69 80 8.0 23.0 0.00 0.00 0.00 74 1012.6
20260506111503 69 91 8.0 24.0 0.00 0.00 0.00 75 1012.5
20260506111003 69 89 7.0 24.0 0.00 0.00 0.00 75 1012.7
20260506110503 69 96 10.0 23.0 0.00 0.00 0.00 74 1012.3
20260506110217 69 83 11.0 34.0 0.00 0.00 0.00 74 1012.9
20260506105503 69 66 10.0 34.0 0.00 0.00 0.00 74 1012.4
20260506105003 69 74 8.0 22.0 0.00 0.00 0.00 74 1012.3
20260506104503 69 80 9.0 26.0 0.00 0.00 0.00 73 1012.3
20260506104004 69 82 9.0 26.0 0.00 0.00 0.00 73 1012.7
20260506103503 69 89 10.0 26.0 0.00 0.00 0.00 73 1012.5
20260506103215 69 78 10.0 26.0 0.00 0.00 0.00 72 1012.7
20260506102503 69 73 8.0 24.0 0.00 0.00 0.00 72 1012.6
20260506102003 69 85 9.0 24.0 0.00 0.00 0.00 72 1012.7
20260506101503 69 94 10.0 24.0 0.00 0.00 0.00 71 1012.7
20260506101003 69 88 9.0 22.0 0.00 0.00 0.00 70 1012.6
20260506100503 70 73 7.0 21.0 0.00 0.00 0.00 69 1012.6
20260506100004 69 84 7.0 21.0 0.00 0.00 0.00 69 1012.7
20260506095503 70 96 8.0 22.0 0.00 0.00 0.00 68 1012.8
20260506095003 69 99 9.0 22.0 0.00 0.00 0.00 69 1012.7
20260506094503 69 85 8.0 22.0 0.00 0.00 0.00 69 1012.5
20260506094004 69 71 6.0 17.0 0.00 0.00 0.00 68 1012.5
20260506093713 69 80 7.0 17.0 0.00 0.00 0.00 69 1012.5
20260506093003 69 86 6.0 17.0 0.00 0.00 0.00 69 1012.7
20260506092503 69 98 8.0 19.0 0.00 0.00 0.00 70 1012.5
20260506092003 68 91 9.0 19.0 0.00 0.00 0.00 73 1012.3
20260506091503 69 83 8.0 19.0 0.00 0.00 0.00 71 1012.5
20260506091003 68 96 7.0 18.0 0.00 0.00 0.00 73 1012.4
20260506090504 68 95 8.0 19.0 0.00 0.00 0.00 73 1012.5
20260506090003 68 82 7.0 21.0 0.00 0.00 0.00 75 1012.4
20260506085504 68 64 7.0 21.0 0.00 0.00 0.00 74 1012.6
20260506085003 67 66 7.0 21.0 0.00 0.00 0.00 75 1012.5
20260506084503 67 47 8.0 21.0 0.00 0.00 0.00 74 1012.5
20260506084003 68 43 7.0 21.0 0.00 0.00 0.00 73 1012.3
20260506083713 68 64 6.0 17.0 0.00 0.00 0.00 73 1012.4
20260506083216 68 70 5.0 15.0 0.00 0.00 0.00 73 1012.5
20260506082714 67 77 6.0 18.0 0.00 0.00 0.00 74 1012.4
20260506082003 67 95 8.0 18.0 0.00 0.00 0.00 73 1012.1
20260506081503 67 88 9.0 22.0 0.00 0.00 0.00 73 1012.3
20260506081003 67 70 8.0 22.0 0.00 0.00 0.00 73 1012.4
20260506080716 67 50 8.0 18.0 0.00 0.00 0.00 74 1012.3
20260506073509 66 44 4.0 17.0 0.00 0.00 0.00 73 1012.2
20260506073003 66 40 5.0 13.0 0.00 0.00 0.00 71 1012.4
20260506072503 66 33 5.0 13.0 0.00 0.00 0.00 70 1012.3
20260506072003 66 12 5.0 10.0 0.00 0.00 0.00 67 1012.3
20260506071716 66 8 4.0 10.0 0.00 0.00 0.00 64 1012.3
20260506071003 66 1 4.0 11.0 0.00 0.00 0.00 59 1012.4
20260506070717 66 347 5.0 11.0 0.00 0.00 0.00 59 1012.4
20260506062503 62 10 4.0 8.0 0.00 0.00 0.00 68 1012.3
20260506062003 61 357 5.0 8.0 0.00 0.00 0.00 69 1012.2
20260506061503 61 16 4.0 8.0 0.00 0.00 0.00 71 1011.8
20260506061003 61 34 3.0 8.0 0.00 0.00 0.00 74 1012.2
20260506060503 61 31 3.0 10.0 0.00 0.00 0.00 75 1012.3
20260506051003 58 247 1.0 2.0 0.00 0.00 0.00 78 1011.3
20260506050503 58 248 1.0 2.0 0.00 0.00 0.00 78 1011.1
20260506044503 57 250 1.0 3.0 0.00 0.00 0.00 78 1010.9
20260506044003 57 244 2.0 3.0 0.00 0.00 0.00 78 1011.0
20260506043503 57 240 2.0 3.0 0.00 0.00 0.00 78 1010.8
20260506043003 57 241 2.0 3.0 0.00 0.00 0.00 78 1011.0
20260506042503 57 244 2.0 3.0 0.00 0.00 0.00 79 1010.7
20260506042215 57 244 2.0 3.0 0.00 0.00 0.00 79 1010.6
20260506041503 57 246 1.0 3.0 0.00 0.00 0.00 79 1010.8
20260506041003 57 246 1.0 3.0 0.00 0.00 0.00 79 1010.9
20260506040503 57 244 1.0 3.0 0.00 0.00 0.00 79 1010.9
20260506040003 58 245 1.0 3.0 0.00 0.00 0.00 79 1010.9
20260506035503 58 250 1.0 2.0 0.00 0.00 0.00 79 1010.7
20260506035003 58 253 1.0 3.0 0.00 0.00 0.00 80 1010.8
20260506034503 58 250 2.0 3.0 0.00 0.00 0.00 80 1011.0
20260506034003 58 249 2.0 3.0 0.00 0.00 0.00 80 1011.0
20260506033503 58 251 2.0 3.0 0.00 0.00 0.00 80 1011.1
20260506033003 59 251 1.0 3.0 0.00 0.00 0.00 80 1011.3